Location: Caltech
(34.1382°N, 118.1253°W)
Time: 13:35:09
(UTC-07:00)

Iridium 14 - Visible Passes

Search period start: 25 July 2014 00:00
Search period end: 04 August 2014 00:00
Orbit: 708 x 711 km, 86.5° (Epoch: 25 July)

Date Brightness Start Highest point End Pass type
(mag) Time Alt. Az. Time Alt. Az. Time Alt. Az.
25 Jul 7.9 01:15:11 25° N 01:15:11 25° N 01:17:10 10° N visible
26 Jul 8.3 00:21:47 15° NE 00:21:47 15° NE 00:22:53 10° NNE visible
26 Jul 8.2 02:00:50 16° NW 02:00:50 16° NW 02:02:08 10° NNW visible
27 Jul 8.0 01:07:25 23° N 01:07:25 23° N 01:09:16 10° N visible
28 Jul 8.3 00:14:01 15° NE 00:14:01 15° NE 00:15:05 10° NNE visible
28 Jul 8.3 01:53:03 15° NW 01:53:03 15° NW 01:54:06 10° NNW visible
29 Jul 8.1 00:59:39 22° N 00:59:39 22° N 01:01:21 10° N visible
30 Jul 8.3 00:06:13 15° NNE 00:06:13 15° NNE 00:07:15 10° NNE visible
30 Jul 8.5 01:45:16 13° NW 01:45:16 13° NW 01:46:04 10° NNW visible
31 Jul 8.2 00:51:50 21° N 00:51:50 21° N 00:53:25 10° N visible
31 Jul 8.3 23:58:24 15° NNE 23:58:24 15° NNE 23:59:25 10° NNE visible
01 Aug 8.6 01:37:27 12° NW 01:37:27 12° NW 01:38:00 10° NNW visible
02 Aug 8.2 00:44:01 20° N 00:44:01 20° N 00:45:29 10° N visible
02 Aug 8.3 23:50:34 16° NNE 23:50:34 16° NNE 23:51:35 10° NNE visible
03 Aug 8.6 01:29:36 11° NW 01:29:36 11° NW 01:29:56 10° NW visible
